GSFLA EGHA-EGHH

Flight info

Callsign GSFLA
Flight time 0h 9m
Altitude 4000
Route EGHH
Aircraft P28B/L-SDGRY/S

Departure

Time 2026-05-05 20:05
Airport Compton Abbas Aerodrome (EGHA)

Arrival

Time 2026-05-05 20:14
Airport Bournemouth Airport (EGHH)
Time Latitude Longitude Altitude Speed Heading
2026-05-05 19:34 50.96651 -2.15499 815 ft 0 kts 349°
2026-05-05 20:02 50.96661 -2.15508 814 ft 4 kts 310°
2026-05-05 20:03 50.96660 -2.15592 814 ft 13 kts 264°
2026-05-05 20:03 50.96643 -2.15776 814 ft 17 kts 257°
2026-05-05 20:03 50.96641 -2.15898 815 ft 6 kts 347°
2026-05-05 20:03 50.96651 -2.15886 815 ft 0 kts 78°
2026-05-05 20:04 50.96676 -2.15723 813 ft 44 kts 77°
2026-05-05 20:04 50.96734 -2.15027 956 ft 75 kts 77°
2026-05-05 20:04 50.96766 -2.14147 1220 ft 81 kts 76°
2026-05-05 20:05 50.96816 -2.13271 1533 ft 79 kts 74°
2026-05-05 20:05 50.96873 -2.12385 1798 ft 88 kts 72°
2026-05-05 20:05 50.96852 -2.11264 1825 ft 123 kts 109°
2026-05-05 20:05 50.96066 -2.10534 1961 ft 144 kts 167°
2026-05-05 20:06 50.95067 -2.10300 2150 ft 145 kts 168°
2026-05-05 20:06 50.94065 -2.10073 2369 ft 147 kts 169°
2026-05-05 20:06 50.93042 -2.09828 2502 ft 153 kts 168°
2026-05-05 20:06 50.92327 -2.09655 2510 ft 160 kts 168°
2026-05-05 20:07 50.91207 -2.09383 2514 ft 165 kts 168°
2026-05-05 20:07 50.90049 -2.09110 2513 ft 166 kts 168°
2026-05-05 20:07 50.88918 -2.08852 2513 ft 167 kts 169°
2026-05-05 20:07 50.87764 -2.08576 2516 ft 168 kts 168°
2026-05-05 20:08 50.86592 -2.08293 2510 ft 168 kts 168°
2026-05-05 20:08 50.85448 -2.08017 2506 ft 168 kts 168°
2026-05-05 20:08 50.84293 -2.07759 2506 ft 167 kts 169°
2026-05-05 20:08 50.83128 -2.07494 2505 ft 167 kts 168°
2026-05-05 20:09 50.81996 -2.07235 2506 ft 167 kts 168°
2026-05-05 20:09 50.80851 -2.06968 2505 ft 166 kts 168°
2026-05-05 20:09 50.79707 -2.06702 2508 ft 167 kts 168°
2026-05-05 20:09 50.78554 -2.06440 2509 ft 167 kts 168°
2026-05-05 20:10 50.77455 -2.05955 2489 ft 161 kts 144°
2026-05-05 20:10 50.76850 -2.04605 2487 ft 150 kts 103°
2026-05-05 20:10 50.76536 -2.03028 2484 ft 151 kts 101°
2026-05-05 20:10 50.76220 -2.01453 2486 ft 150 kts 102°
2026-05-05 20:11 50.75935 -1.99870 2487 ft 149 kts 96°
2026-05-05 20:11 50.75780 -1.98264 2482 ft 146 kts 87°
2026-05-05 20:11 50.75797 -1.96680 2480 ft 143 kts 81°
2026-05-05 20:11 50.75998 -1.95182 2411 ft 143 kts 69°
2026-05-05 20:12 50.76319 -1.93619 2103 ft 155 kts 67°
2026-05-05 20:12 50.76640 -1.91935 1680 ft 164 kts 69°
2026-05-05 20:12 50.76910 -1.90350 1141 ft 135 kts 62°
2026-05-05 20:12 50.77124 -1.89155 922 ft 101 kts 68°
2026-05-05 20:13 50.77318 -1.88163 725 ft 90 kts 67°
2026-05-05 20:13 50.77469 -1.87280 513 ft 79 kts 69°
2026-05-05 20:13 50.77631 -1.86434 329 ft 82 kts 64°
2026-05-05 20:13 50.77784 -1.85567 151 ft 81 kts 64°
2026-05-05 20:14 50.77917 -1.84773 46 ft 63 kts 70°
2026-05-05 20:14 50.78014 -1.84209 39 ft 44 kts 75°
2026-05-05 20:14 50.78066 -1.83923 39 ft 11 kts 29°
2026-05-05 20:14 50.78140 -1.83931 38 ft 11 kts 346°
2026-05-05 20:15 50.78214 -1.83960 37 ft 11 kts 346°
2026-05-05 20:15 50.78315 -1.84001 38 ft 18 kts 346°
2026-05-05 20:15 50.78455 -1.84060 38 ft 24 kts 345°
2026-05-05 20:15 50.78622 -1.84131 38 ft 24 kts 345°
2026-05-05 20:16 50.78708 -1.84170 38 ft 0 kts 345°
2026-05-05 20:16 50.78670 -1.84149 38 ft 16 kts 163°
2026-05-05 20:17 50.78609 -1.84043 36 ft 13 kts 110°
2026-05-05 20:17 50.78594 -1.84049 37 ft 0 kts 313°